Location: Cicognara
(44.9500°N, 10.4667°E)
Time: 06:00:24
(UTC+00:00)

Cosmos 2034 Rocket - Pass Details

Date: 20 June 2021
Orbit: 957 x 1001 km, 82.9° (Epoch: 28 July)

Event Time Altitude Azimuth Distance (km) Brightness Sun altitude
Rises 22:59:10 0° 348° (NNW) 3,664 8.5 -21.4°
Reaches altitude 10° 23:01:43 10° 345° (NNW) 2,708 7.4 -21.5°
Maximum altitude 23:07:45 59° 268° (W) 1,104 4.2 -21.6°
Enters shadow 23:10:03 37° 207° (SSW) 1,450 4.5 -21.6°
